Location: Aula-Vintri
(58.3875°N, 22.4322°E)
Time: 01:46:24
(UTC+00:00)

Cosmos 2263 Rocket - Pass Details

Date: 13 October 2019
Orbit: 825 x 847 km, 71.0° (Epoch: 16 November)

Event Time Altitude Azimuth Distance (km) Brightness Sun altitude
Rises 19:30:31 0° 280° (W) 3,404 6.2 -30.4°
Reaches altitude 10° 19:33:27 10° 294° (WNW) 2,467 5.4 -30.7°
Maximum altitude 19:38:02 25° 348° (NNW) 1,661 4.2 -31.1°
Enters shadow 19:41:43 14° 36° (NE) 2,215 4.4 -31.5°
